Zurück zum Katalog

SL-16 DEB

AktivVLEO
NORAD 22296·DEBRIS·🇷🇺 Russia

Gestartet Dec 25, 1992 von Baikonur Cosmodrome

Loading…

Nächste Überflüge (nächste 24 Stunden)

TLE

AktuellSource: Space-Track

Epoche: Sep 14, 2026, 10:31 UTC

1 22296U 92093L   26257.43826216  .00034118  00000-0  23993-2 0  9993
2 22296  70.8215   9.1580 0020619 175.9051 300.3728 15.04760804751309

Verfolge SL-16 DEB in Echtzeit mit AllMySat

Download on the App Store